When you browse on this site, cookies collect data to enhance your experience and personalize the content and advertising you see.
Visit our Privacy Policy to learn more. By continuing to use the site, you agree to this use of cookies and data.
  • Em Portugal
  • Lista de países
  • Para 7 dias
  • Temperatura da água
  • Mapas de satélite
  • Mapa do tempo
  • Widgets de tempo
  • user-avatar
    Iniciar Sessão

    Previsão horária em Corcha

    Hoje, 24 Março, Domingo

    Tempo Temperatura Precipitação Vento Pressão Humidade
    00:00 +6°C° 0 mm 2 m/s 668 mmHg 64%
    01:00 +6°C° 0 mm 2 m/s 667 mmHg 64%
    02:00 +6°C° 0 mm 2 m/s 667 mmHg 66%
    03:00 +5°C° 0 mm 2 m/s 667 mmHg 68%
    04:00 +5°C° 0 mm 2 m/s 667 mmHg 70%
    05:00 +5°C° 0 mm 2 m/s 668 mmHg 70%
    06:00 +6°C° 0 mm 2 m/s 668 mmHg 70%
    07:00 +7°C° 0 mm 2 m/s 668 mmHg 70%
    08:00 +9°C° 0 mm 2 m/s 669 mmHg 62%
    09:00 +10°C° 0 mm 2 m/s 669 mmHg 54%
    10:00 +13°C° 0 mm 2 m/s 670 mmHg 46%
    11:00 +14°C° 0 mm 2 m/s 670 mmHg 43%
    12:00 +15°C° 0 mm 2 m/s 670 mmHg 39%
    13:00 +16°C° 0 mm 2 m/s 670 mmHg 36%
    14:00 +16°C° 0 mm 2 m/s 669 mmHg 37%
    15:00 +16°C° 0 mm 2 m/s 669 mmHg 38%
    16:00 +15°C° 0 mm 2 m/s 669 mmHg 39%
    17:00 +13°C° 0 mm 2 m/s 668 mmHg 47%
    18:00 +12°C° 0 mm 2 m/s 668 mmHg 55%
    19:00 +10°C° 0 mm 1 m/s 667 mmHg 63%
    20:00 +9°C° 0 mm 1 m/s 667 mmHg 64%
    21:00 +9°C° 0 mm 1 m/s 667 mmHg 64%
    22:00 +7°C° 0 mm 0 m/s 667 mmHg 65%
    23:00 +7°C° 0 mm 0 m/s 667 mmHg 65%

    Amanhã, 25 Março, Segunda-feira

    Tempo Temperatura Precipitação Vento Pressão Humidade
    00:00 +6°C° 0 mm 0 m/s 667 mmHg 65%
    01:00 +6°C° 0 mm 0 m/s 667 mmHg 65%
    02:00 +6°C° 0 mm 0 m/s 666 mmHg 66%
    03:00 +6°C° 0 mm 0 m/s 666 mmHg 67%
    04:00 +5°C° 0 mm 0 m/s 666 mmHg 68%
    05:00 +6°C° 0 mm 0 m/s 666 mmHg 66%
    06:00 +7°C° 0 mm 0 m/s 666 mmHg 64%
    07:00 +8°C° 0 mm 0 m/s 666 mmHg 62%
    08:00 +10°C° 0 mm 1 m/s 666 mmHg 56%
    09:00 +12°C° 0 mm 1 m/s 667 mmHg 50%
    10:00 +14°C° 0 mm 2 m/s 667 mmHg 44%
    11:00 +14°C° 0 mm 2 m/s 666 mmHg 42%
    12:00 +15°C° 0 mm 2 m/s 666 mmHg 40%
    13:00 +14°C° 0 mm 3 m/s 666 mmHg 38%
    14:00 +14°C° 0 mm 3 m/s 665 mmHg 41%
    15:00 +13°C° 0 mm 3 m/s 665 mmHg 43%
    16:00 +13°C° 0 mm 3 m/s 664 mmHg 46%
    17:00 +12°C° 0 mm 2 m/s 664 mmHg 54%
    18:00 +9°C° 0 mm 2 m/s 663 mmHg 61%
    19:00 +8°C° 0 mm 1 m/s 663 mmHg 69%
    20:00 +8°C° 0 mm 1 m/s 662 mmHg 71%
    21:00 +7°C° 0 mm 1 m/s 662 mmHg 73%
    22:00 +5°C° 0 mm 0 m/s 662 mmHg 76%
    23:00 +5°C° 0 mm 0 m/s 662 mmHg 75%

    Depois de amanhã, 26 Março, Terça-feira

    Tempo Temperatura Precipitação Vento Pressão Humidade
    00:00 +6°C° 0 mm 1 m/s 662 mmHg 75%
    01:00 +5°C° 0 mm 1 m/s 661 mmHg 75%
    02:00 +4°C° 0 mm 0 m/s 661 mmHg 74%
    03:00 +4°C° 0 mm 0 m/s 661 mmHg 72%
    04:00 +4°C° 0 mm 0 m/s 661 mmHg 71%
    05:00 +5°C° 0 mm 0 m/s 662 mmHg 68%
    06:00 +6°C° 0 mm 0 m/s 662 mmHg 66%
    07:00 +6°C° 0 mm 0 m/s 662 mmHg 63%
    08:00 +8°C° 0 mm 0 m/s 663 mmHg 58%
    09:00 +11°C° 0 mm 1 m/s 664 mmHg 52%
    10:00 +13°C° 0 mm 1 m/s 664 mmHg 46%
    11:00 +13°C° 0.2 mm 1 m/s 664 mmHg 45%
    12:00 +14°C° 0.2 mm 1 m/s 664 mmHg 44%
    13:00 +14°C° 0.2 mm 1 m/s 664 mmHg 42%
    14:00 +13°C° 1 mm 2 m/s 664 mmHg 49%
    15:00 +12°C° 1 mm 2 m/s 664 mmHg 56%
    16:00 +10°C° 1 mm 2 m/s 664 mmHg 63%
    17:00 +9°C° 1 mm 2 m/s 664 mmHg 68%
    18:00 +8°C° 1 mm 2 m/s 664 mmHg 73%
    19:00 +7°C° 1 mm 2 m/s 665 mmHg 79%
    20:00 +7°C° 0.1 mm 2 m/s 665 mmHg 79%
    21:00 +6°C° 0.1 mm 2 m/s 666 mmHg 78%
    22:00 +6°C° 0.1 mm 2 m/s 666 mmHg 78%
    23:00 +5°C° 0 mm 2 m/s 666 mmHg 79%

    27 Março, Quarta-feira

    Tempo Temperatura Precipitação Vento Pressão Humidade
    00:00 +4°C° 0 mm 2 m/s 666 mmHg 80%
    01:00 +4°C° 0 mm 2 m/s 666 mmHg 81%
    02:00 +3°C° 0 mm 2 m/s 666 mmHg 81%
    03:00 +3°C° 0 mm 2 m/s 666 mmHg 80%
    04:00 +3°C° 0 mm 2 m/s 666 mmHg 80%
    05:00 +3°C° 0 mm 2 m/s 666 mmHg 77%
    06:00 +3°C° 0 mm 2 m/s 666 mmHg 74%
    07:00 +4°C° 0 mm 2 m/s 667 mmHg 72%
    08:00 +5°C° 0 mm 2 m/s 667 mmHg 67%
    09:00 +7°C° 0 mm 2 m/s 668 mmHg 62%
    10:00 +9°C° 0 mm 2 m/s 668 mmHg 56%
    11:00 +9°C° 0.1 mm 2 m/s 668 mmHg 55%
    12:00 +10°C° 0.1 mm 2 m/s 668 mmHg 54%
    13:00 +10°C° 0.1 mm 2 m/s 668 mmHg 53%
    14:00 +9°C° 0.7 mm 2 m/s 668 mmHg 59%
    15:00 +9°C° 0.7 mm 2 m/s 667 mmHg 64%
    16:00 +8°C° 0.7 mm 2 m/s 667 mmHg 70%
    17:00 +7°C° 0.8 mm 2 m/s 667 mmHg 75%
    18:00 +6°C° 0.8 mm 2 m/s 667 mmHg 80%
    19:00 +6°C° 0.8 mm 2 m/s 667 mmHg 85%
    20:00 +5°C° 0.5 mm 2 m/s 667 mmHg 85%
    21:00 +5°C° 0.5 mm 2 m/s 667 mmHg 86%
    22:00 +5°C° 0.5 mm 2 m/s 667 mmHg 86%
    23:00 +5°C° 0.1 mm 2 m/s 667 mmHg 86%

    28 Março, Quinta-feira

    Tempo Temperatura Precipitação Vento Pressão Humidade
    00:00 +4°C° 0.1 mm 2 m/s 667 mmHg 87%
    01:00 +4°C° 0.1 mm 2 m/s 666 mmHg 87%
    02:00 +4°C° 0.2 mm 2 m/s 666 mmHg 87%
    03:00 +3°C° 0.2 mm 3 m/s 666 mmHg 87%
    04:00 +3°C° 0.2 mm 3 m/s 666 mmHg 87%
    05:00 +3°C° 0.1 mm 3 m/s 666 mmHg 84%
    06:00 +3°C° 0.1 mm 3 m/s 667 mmHg 82%
    07:00 +3°C° 0.1 mm 3 m/s 667 mmHg 80%
    08:00 +3°C° 0 mm 4 m/s 668 mmHg 74%
    09:00 +4°C° 0 mm 4 m/s 668 mmHg 68%
    10:00 +4°C° 0 mm 4 m/s 668 mmHg 62%
    11:00 +5°C° 0 mm 4 m/s 668 mmHg 59%
    12:00 +5°C° 0 mm 4 m/s 668 mmHg 56%
    13:00 +6°C° 0 mm 4 m/s 668 mmHg 53%
    14:00 +6°C° 0 mm 4 m/s 668 mmHg 53%
    15:00 +7°C° 0 mm 3 m/s 668 mmHg 53%
    16:00 +7°C° 0 mm 3 m/s 668 mmHg 53%
    17:00 +4°C° 0 mm 3 m/s 668 mmHg 58%
    18:00 +4°C° 0 mm 2 m/s 668 mmHg 62%
    19:00 +3°C° 0 mm 2 m/s 668 mmHg 67%
    20:00 +2°C° 0 mm 2 m/s 668 mmHg 67%
    21:00 +2°C° 0 mm 2 m/s 668 mmHg 68%
    22:00 +2°C° 0 mm 2 m/s 668 mmHg 68%
    23:00 +2°C° 0 mm 2 m/s 668 mmHg 70%

    29 Março, Sexta-feira

    Tempo Temperatura Precipitação Vento Pressão Humidade
    00:00 +2°C° 0 mm 2 m/s 668 mmHg 72%
    01:00 +1°C° 0 mm 2 m/s 668 mmHg 74%
    02:00 +1°C° 0 mm 2 m/s 668 mmHg 77%
    03:00 +1°C° 0 mm 2 m/s 668 mmHg 80%
    04:00 +1°C° 0 mm 2 m/s 668 mmHg 83%
    05:00 +1°C° 0 mm 2 m/s 669 mmHg 81%
    06:00 +2°C° 0 mm 2 m/s 669 mmHg 78%
    07:00 +3°C° 0 mm 2 m/s 669 mmHg 75%
    08:00 +4°C° 0 mm 2 m/s 670 mmHg 66%
    09:00 +4°C° 0 mm 3 m/s 670 mmHg 57%
    10:00 +7°C° 0 mm 3 m/s 670 mmHg 48%
    11:00 +8°C° 0 mm 3 m/s 670 mmHg 45%
    12:00 +8°C° 0 mm 3 m/s 670 mmHg 41%
    13:00 +9°C° 0 mm 3 m/s 670 mmHg 38%
    14:00 +9°C° 0 mm 3 m/s 670 mmHg 39%
    15:00 +9°C° 0 mm 3 m/s 669 mmHg 40%
    16:00 +8°C° 0 mm 3 m/s 669 mmHg 41%
    17:00 +7°C° 0 mm 3 m/s 669 mmHg 46%
    18:00 +4°C° 0 mm 3 m/s 669 mmHg 51%
    19:00 +4°C° 0 mm 2 m/s 669 mmHg 57%
    20:00 +3°C° 0 mm 2 m/s 669 mmHg 58%
    21:00 +3°C° 0 mm 2 m/s 669 mmHg 59%
    22:00 +2°C° 0 mm 2 m/s 669 mmHg 60%
    23:00 +2°C° 0 mm 2 m/s 669 mmHg 61%
    Mostrar mais